Location: Kellogg
(38.0159°N, 90.0546°W)
Time: 22:42:51
(UTC+00:00)

Vanguard 2 - Pass Details

Date: 25 September 2024
Orbit: 552 x 2910 km, 32.9° (Epoch: 09 October)

Event Time Altitude Azimuth Distance (km) Brightness Sun altitude
Rises 06:44:02 0° 244° (WSW) 2,939 - -51.2°
Reaches altitude 10° 06:46:38 10° 235° (SW) 1,898 - -51.0°
Maximum altitude 06:50:21 33° 169° (S) 924 - -50.7°
Drops below altitude 10° 06:54:01 10° 104° (ESE) 1,874 - -50.4°
Sets 06:56:33 0° 94° (E) 2,895 - -50.2°
